Wind_Speed
25 25 25 24 24 22 21 21 22 23 22 21 20 20 19 18 18 19 20 19 19 18 17 16 16 17 17 17 17 16 15 15 15 16 16 16 16 16 15 15 15 16 16 16 17 17 18 18 17 18 18 17 17 17 16 16 15 15 15 14 14 14 14 14 13 15 18 21 22 24 25 26 27 28 29 30 31 32 31 30 30 29 30 32 32
26 26 26 25 24 22 21 22 23 23 23 21 20 20 19 18 19 20 21 20 19 18 18 17 17 17 17 17 17 17 16 16 16 16 16 16 17 16 16 16 16 16 17 17 17 17 17 17 17 17 17 16 16 16 15 15 14 14 14 14 14 13 13 14 14 14 16 19 22 23 25 27 27 28 30 31 32 33 32 30 30 29 30 32 33
27 27 27 26 25 23 22 23 23 24 23 22 21 20 19 19 20 21 21 20 20 19 18 17 17 18 18 18 18 18 17 17 17 17 18 18 18 18 17 18 17 17 17 16 16 16 16 17 17 17 16 15 15 15 14 14 13 13 13 13 13 14 14 14 14 15 16 18 21 23 25 26 27 29 31 32 33 33 33 31 30 30 30 32 34
27 28 28 26 25 24 23 24 24 24 24 23 22 20 19 20 21 22 21 21 20 19 18 18 18 18 18 18 19 19 19 19 19 19 19 20 20 19 19 19 18 18 17 16 15 15 16 16 16 16 15 15 15 14 13 13 13 13 12 12 13 14 14 14 15 16 18 19 21 23 25 26 28 30 32 32 33 33 33 32 31 31 31 32 34
27 28 28 27 26 25 24 24 24 25 24 23 22 21 21 21 21 22 22 21 20 19 19 18 18 19 18 18 19 19 20 19 19 19 20 21 21 21 21 21 20 19 18 17 15 15 15 16 16 15 14 14 14 13 13 13 12 12 12 13 13 13 13 14 15 17 19 21 22 23 25 27 28 30 32 33 34 34 33 32 31 32 31 32 33
27 29 29 27 27 25 25 25 25 26 26 24 23 22 22 21 21 22 22 22 21 20 19 19 19 19 18 18 18 19 19 19 19 20 21 21 21 22 23 24 23 23 21 19 16 15 15 15 15 14 13 13 13 13 12 12 12 12 13 13 12 12 12 14 16 18 20 21 22 22 25 27 29 30 32 34 35 35 35 33 32 31 31 32 32
29 30 30 29 28 26 25 25 26 27 27 25 24 23 22 21 21 22 22 22 21 20 20 20 19 18 18 17 17 17 18 18 18 20 21 21 22 24 25 24 24 24 22 19 17 15 15 14 14 13 13 12 12 12 12 12 12 13 13 12 11 11 12 14 16 18 19 20 21 22 25 27 29 31 33 34 34 35 35 35 34 33 31 30 32
32 32 30 30 29 27 26 26 27 28 27 26 25 24 23 21 21 21 21 21 21 20 20 20 19 18 17 16 16 16 17 18 19 21 21 22 25 27 25 22 21 20 20 18 16 14 14 14 13 13 12 12 12 11 11 12 13 13 11 11 11 11 12 14 15 17 19 20 21 22 24 27 29 31 33 34 35 35 36 37 37 36 33 30 30
33 33 32 31 29 28 27 27 28 28 28 27 27 25 23 22 22 21 21 21 20 20 21 20 19 17 15 15 15 16 18 19 21 22 23 24 25 24 21 18 17 18 17 16 15 13 14 14 13 12 12 12 12 11 12 13 13 11 10 10 10 11 13 14 15 17 18 19 20 22 24 27 30 32 35 37 38 38 37 37 36 35 34 31 29
35 34 32 31 30 28 28 29 29 28 28 29 28 25 24 23 22 21 21 20 20 20 20 19 18 17 16 16 17 18 19 20 22 22 22 23 22 19 17 16 16 16 15 15 13 13 13 13 12 12 12 12 11 12 13 13 11 10 10 10 10 12 13 14 16 16 17 19 21 22 24 27 31 35 37 38 38 37 36 37 36 36 35 34 31
36 33 32 32 31 30 29 29 28 28 29 30 28 26 24 23 22 21 20 19 19 20 19 19 19 18 17 17 18 19 19 21 22 20 19 20 19 17 16 15 16 15 14 13 13 12 12 12 12 12 12 11 11 13 13 11 10 10 10 9 10 12 13 14 15 16 17 18 21 23 25 29 33 36 38 37 37 36 36 36 37 37 37 37 36
34 32 31 32 31 30 30 29 27 29 30 30 28 26 24 23 21 20 19 18 19 19 20 20 20 19 18 18 20 20 19 19 19 17 17 19 18 17 16 14 15 14 13 13 12 11 11 12 12 12 12 11 12 13 11 11 10 10 9 10 11 12 13 14 15 15 17 18 21 24 26 29 33 35 37 37 37 37 36 36 37 37 36 36 36
32 31 31 31 31 31 30 29 28 30 30 29 28 27 24 22 21 19 18 18 18 20 21 21 20 19 19 19 20 19 18 17 17 16 18 18 18 17 15 14 14 13 12 12 12 10 10 12 13 12 12 12 12 12 11 11 10 10 10 10 11 12 13 14 15 15 17 19 21 23 27 30 32 34 36 37 38 38 38 38 38 37 36 34 33
31 30 30 31 31 31 29 29 29 30 30 30 29 26 23 21 19 18 18 17 19 21 22 21 20 20 19 20 20 19 18 18 17 17 17 18 18 17 15 13 13 13 12 12 11 10 11 12 12 11 12 12 12 11 11 11 10 10 10 10 10 11 13 14 15 16 17 19 21 23 26 28 30 33 36 38 39 39 39 39 38 37 35 33 31
31 30 30 30 31 31 29 28 29 30 30 30 29 26 23 21 19 18 18 18 20 21 22 21 21 21 21 20 20 19 20 20 18 18 18 18 18 17 15 13 14 14 13 12 11 12 12 12 11 11 12 13 12 11 11 11 11 11 10 10 10 11 13 14 15 16 18 19 21 23 24 27 30 33 36 38 38 38 37 36 36 36 35 33 30
30 30 30 29 29 29 28 28 29 30 31 31 28 25 23 20 18 18 19 20 21 22 22 22 22 23 22 21 20 20 21 20 18 19 19 19 19 18 15 15 15 15 13 12 12 13 12 11 11 11 12 13 12 12 11 11 11 11 10 10 11 12 13 14 14 16 17 19 20 22 24 26 30 33 35 37 37 37 36 35 35 36 36 35 32
29 29 28 28 27 27 26 26 28 31 32 30 27 24 21 19 18 18 20 21 22 22 23 23 23 23 23 22 21 21 21 20 19 20 21 20 20 19 17 16 16 15 13 13 13 12 12 12 11 10 11 13 13 12 12 12 11 11 10 10 11 12 13 14 15 16 17 19 20 21 23 25 28 32 34 35 36 36 36 36 37 37 37 37 35
29 28 27 26 25 24 24 25 29 32 31 29 26 23 21 19 19 20 21 22 22 22 23 23 23 23 22 22 22 21 21 21 20 21 22 22 21 21 19 18 18 15 13 13 13 12 12 12 11 10 11 13 13 12 13 12 12 11 10 10 11 12 13 14 15 16 17 18 19 21 23 25 28 30 33 33 33 33 34 35 36 37 36 36 36
27 26 25 24 24 24 24 26 29 31 29 27 25 23 21 21 21 22 22 23 22 23 23 23 23 23 23 23 22 21 22 23 22 23 24 23 22 22 21 20 19 15 13 13 12 12 12 12 11 10 12 13 13 13 14 13 12 10 10 10 11 12 13 14 15 16 17 18 18 20 22 24 26 29 31 32 31 31 31 33 34 34 34 34 35
25 24 24 24 25 25 24 25 28 29 27 25 23 23 23 23 23 23 23 23 23 23 23 22 22 23 23 23 20 19 20 23 25 26 25 22 22 23 21 20 18 15 12 12 11 11 12 13 12 11 12 13 14 14 14 14 12 11 10 10 11 12 13 13 14 15 16 17 17 19 21 23 26 28 30 31 31 30 30 30 31 32 33 33 34
24 24 25 25 25 23 22 24 27 28 25 23 23 24 23 23 23 23 23 23 22 22 21 21 21 22 22 22 19 17 18 22 25 25 20 19 20 21 20 18 17 15 13 12 12 12 13 14 13 12 12 14 14 15 15 14 13 11 10 10 11 12 13 13 14 15 16 17 17 19 21 23 25 28 29 31 31 30 29 28 28 30 31 32 34
23 23 24 24 23 21 21 22 24 23 22 23 24 24 23 23 24 24 24 23 22 21 20 20 19 19 21 22 20 19 21 23 22 19 16 17 19 20 19 17 15 14 13 13 13 13 14 14 14 12 13 14 15 16 15 14 13 11 10 10 11 12 12 13 15 16 16 17 17 19 21 23 25 27 29 31 31 31 29 27 27 28 29 30 32
23 23 23 22 21 19 19 20 21 22 23 25 24 24 24 24 25 24 23 22 21 21 19 17 16 17 19 20 18 19 20 20 18 16 15 16 18 19 19 17 14 13 14 14 14 14 13 13 14 13 13 15 16 17 16 15 13 12 11 10 11 12 13 14 15 16 16 16 17 18 20 22 24 27 29 31 32 32 29 27 26 26 28 29 30
23 23 22 21 19 18 17 20 22 24 25 24 23 23 24 24 23 22 20 20 23 23 18 16 18 20 19 19 19 17 15 15 15 16 15 15 17 18 18 16 14 14 15 15 15 14 12 12 13 14 15 16 17 17 16 15 14 12 11 11 11 12 13 14 15 16 15 16 17 18 20 22 24 26 29 31 32 32 29 27 26 26 26 27 29
22 21 21 20 18 17 18 21 22 22 22 22 22 22 22 21 20 19 19 21 25 23 17 16 20 20 19 20 19 15 14 15 15 15 14 14 16 17 17 16 15 15 15 15 15 14 13 13 14 15 16 17 18 17 17 16 15 13 12 12 12 12 13 14 16 15 15 15 16 17 19 21 23 25 27 29 31 31 28 27 26 26 26 27 28
21 21 20 18 17 17 18 20 19 19 19 20 20 20 20 19 19 20 21 22 22 18 16 19 22 20 19 19 16 13 14 15 14 14 14 14 16 17 17 16 15 15 15 15 15 15 15 14 15 17 19 19 19 18 18 17 16 14 13 13 13 13 13 15 16 15 15 15 16 17 18 20 21 23 26 28 30 31 29 28 27 27 28 28 29
21 20 19 17 16 17 18 17 17 17 18 19 19 19 18 19 19 19 20 20 17 16 19 23 22 19 17 15 14 13 14 14 13 11 12 14 16 17 17 16 15 15 15 15 16 16 16 16 16 19 20 20 19 19 19 18 17 15 14 14 13 14 15 16 16 15 15 16 16 17 18 19 20 22 25 27 29 30 29 28 27 27 28 29 30
20 19 18 17 16 16 16 16 16 17 17 17 18 18 17 17 17 16 17 17 17 20 22 21 18 16 15 14 14 14 14 14 13 11 11 14 16 17 17 16 15 15 16 17 17 18 18 17 17 19 20 19 19 20 20 19 18 16 15 15 14 14 16 17 16 15 16 16 17 17 17 18 19 22 24 26 28 29 28 28 27 27 27 28 29
20 18 17 16 16 16 16 16 16 16 16 17 18 17 16 16 16 16 17 16 17 20 20 18 16 16 15 15 14 14 13 14 15 14 14 15 16 17 17 16 16 17 18 19 20 20 19 18 17 18 19 19 19 20 20 20 19 17 17 16 15 15 17 17 16 15 16 17 17 17 17 18 19 21 23 24 26 27 27 28 28 27 26 26 27
18 17 16 16 16 16 15 15 15 16 17 18 18 18 17 17 17 17 17 17 17 17 16 16 17 18 16 14 14 14 14 15 17 17 17 16 17 17 17 17 18 19 20 21 22 21 20 18 17 17 19 19 19 20 21 21 20 19 18 17 16 16 17 17 16 16 16 16 17 17 17 18 19 20 22 23 24 25 26 28 29 27 25 25 25
17 15 15 15 15 15 15 15 17 18 19 19 19 18 18 18 17 17 17 17 16 14 14 16 19 19 17 16 16 16 15 16 18 18 18 17 17 17 17 17 19 20 21 22 22 21 20 18 17 18 19 19 20 20 21 21 20 19 18 17 17 17 17 16 16 16 16 16 17 17 17 18 18 20 21 22 23 25 26 28 28 26 25 24 24
16 15 15 15 15 16 17 18 20 21 20 20 19 18 18 18 17 17 18 18 16 14 14 15 17 17 17 18 18 18 18 17 18 19 19 18 18 17 17 17 18 20 21 23 22 21 20 19 18 19 19 20 20 21 22 22 21 19 18 17 17 17 16 16 16 17 16 17 17 17 17 18 18 19 20 21 23 25 26 26 26 26 25 23 23
17 17 17 17 18 19 20 22 23 23 22 20 19 19 18 18 18 19 20 20 18 16 15 15 17 18 18 19 19 19 19 18 18 18 18 18 17 16 17 18 19 21 22 22 21 21 20 20 19 19 20 20 20 21 22 22 21 20 19 17 17 16 16 16 17 17 17 17 17 17 17 18 18 19 19 20 22 24 25 25 25 25 25 24 23
19 19 20 21 21 21 21 22 23 23 22 21 20 19 18 18 19 20 20 19 18 18 17 18 19 19 19 19 19 18 17 16 16 16 16 17 16 17 18 20 21 22 22 22 21 22 21 20 19 19 20 20 21 22 22 22 21 20 19 18 17 18 17 17 16 16 17 17 16 16 17 18 18 19 19 20 22 24 24 24 24 24 25 24 23
22 22 22 23 23 22 22 23 23 23 24 25 23 21 19 18 19 18 18 18 18 18 19 19 19 20 20 20 20 20 19 17 17 16 17 18 18 18 19 20 21 21 21 21 22 22 21 20 19 19 20 21 22 22 23 22 22 21 19 18 19 19 18 16 16 16 17 17 16 16 16 17 18 19 20 20 22 23 23 24 24 24 24 24 23
23 23 23 23 23 23 24 23 24 25 26 26 24 21 18 18 18 18 18 19 19 18 18 18 18 19 19 20 20 21 20 19 18 18 18 19 20 21 21 20 20 20 20 20 21 20 20 20 20 20 21 22 22 22 23 23 22 21 20 20 21 20 18 17 17 17 16 16 16 16 16 17 18 19 20 21 22 23 23 23 24 24 23 23 23
21 21 21 20 20 22 24 24 24 25 25 23 22 20 19 18 18 18 19 19 18 17 17 17 17 17 16 16 17 18 19 19 18 19 20 21 22 23 22 21 21 21 20 20 19 20 20 20 20 21 22 23 23 23 23 23 23 22 21 22 21 20 18 18 18 17 16 15 15 15 16 17 18 19 20 21 21 22 22 22 23 22 22 22 23
18 19 18 18 18 20 22 25 25 24 24 23 22 19 18 18 18 19 19 18 16 16 17 18 18 17 16 16 17 18 19 19 19 19 20 21 22 22 22 22 22 21 20 20 20 20 20 20 21 22 23 23 23 23 24 24 23 22 22 22 21 19 18 18 18 17 16 15 16 15 16 16 17 19 20 20 21 21 22 22 22 22 22 21 22
17 18 17 16 15 15 17 21 23 23 24 24 22 18 17 19 21 21 18 16 16 18 19 19 19 19 18 18 19 20 19 18 18 19 20 20 21 21 21 21 22 22 22 21 21 21 21 20 21 22 23 23 24 24 25 25 24 23 23 22 21 19 17 17 17 17 16 16 16 16 16 17 17 19 20 20 20 21 21 21 22 23 23 22 22
16 17 16 15 14 14 15 17 19 21 22 22 20 19 20 21 21 19 16 16 18 20 20 18 17 17 18 19 20 19 17 17 17 19 20 20 20 21 21 21 22 22 22 21 22 23 22 21 21 22 22 23 24 25 25 25 25 26 25 24 21 18 16 16 16 16 16 16 16 16 17 17 18 18 19 20 21 21 22 22 23 23 23 23 22
14 14 14 13 13 14 15 15 16 18 19 20 20 20 21 21 20 17 16 18 21 20 18 17 17 17 18 19 19 18 18 18 18 19 19 19 18 18 19 20 20 21 21 22 23 24 24 23 23 22 22 23 24 25 25 25 27 28 27 25 23 19 16 16 16 17 16 15 16 17 17 18 18 19 19 20 21 21 22 22 23 23 23 23 23
13 12 12 11 12 12 14 15 16 17 18 18 19 19 18 18 18 17 18 21 22 20 17 17 17 17 18 18 19 20 20 19 18 17 16 16 16 17 17 18 18 19 20 22 23 25 25 25 25 24 24 24 24 24 24 25 27 28 28 26 25 23 21 19 18 17 17 16 16 17 18 18 18 19 19 19 20 21 21 22 22 22 22 22 23
13 11 11 12 12 13 13 14 14 15 14 15 17 17 16 16 16 17 20 22 21 18 16 16 16 17 17 18 19 20 19 18 17 15 14 14 14 15 15 16 17 18 19 20 22 24 25 26 26 25 25 24 24 24 25 25 26 27 28 27 26 25 24 21 19 18 18 18 17 17 18 18 18 18 19 20 20 20 21 22 22 22 22 22 22
13 12 12 12 11 12 12 12 12 12 12 14 14 15 16 19 20 18 17 17 16 15 15 17 17 18 18 17 17 18 17 17 16 14 13 13 13 13 14 16 17 18 18 19 21 22 24 25 25 24 24 24 24 25 25 25 25 25 26 25 25 25 23 22 20 20 20 19 18 18 18 18 17 17 18 19 19 20 21 21 22 22 22 21 21
13 12 11 11 11 10 11 11 11 11 12 13 13 14 16 18 17 14 11 12 14 15 16 17 18 19 18 16 15 16 16 15 14 14 13 13 12 12 14 16 17 18 18 19 19 21 22 23 23 23 22 22 23 24 24 24 24 24 24 23 23 23 23 23 23 22 21 20 19 18 18 18 18 17 17 17 18 19 20 21 22 22 22 21 22
13 12 11 11 10 10 10 11 12 13 13 13 14 14 14 14 13 12 13 14 15 15 16 17 19 19 17 14 14 15 16 17 17 16 15 14 13 13 14 16 17 18 19 19 19 20 20 21 22 22 21 20 22 23 24 24 24 23 22 22 22 22 22 23 23 22 21 21 20 19 19 19 19 18 17 17 18 19 20 21 22 22 21 21 22
13 14 13 13 13 12 12 12 13 14 14 14 14 13 13 13 13 15 16 17 17 17 17 18 18 16 14 13 14 16 17 18 19 19 18 16 16 15 16 16 17 18 19 19 18 18 18 19 20 20 19 20 22 23 23 22 21 21 20 20 21 21 21 22 22 21 21 21 21 20 20 20 19 19 19 19 19 19 20 21 22 21 21 21 22
12 11 10 13 14 13 13 13 12 12 13 13 12 12 12 13 14 15 15 16 16 16 15 15 14 12 12 13 15 16 16 16 15 16 16 15 15 14 15 15 16 16 17 17 16 16 16 17 18 18 19 20 21 22 22 20 19 19 19 19 19 19 21 22 21 21 22 22 21 20 20 20 20 20 20 21 21 21 21 21 22 21 20 20 21
11 9 9 12 13 12 11 11 12 12 12 11 10 10 10 11 12 13 13 14 14 14 13 13 12 12 13 13 13 14 13 12 12 13 14 14 14 15 16 16 15 14 13 14 14 14 15 15 16 18 19 18 19 20 21 20 18 18 18 17 18 20 22 22 22 22 22 21 21 21 20 20 20 21 21 22 22 22 22 22 21 20 19 20 21
13 11 10 11 11 10 10 11 12 12 12 11 10 10 10 10 11 11 11 12 13 14 14 14 15 15 15 14 13 13 13 14 14 15 15 15 16 17 16 16 15 14 13 12 12 13 14 15 17 18 18 17 17 18 18 19 19 18 18 18 19 21 22 22 22 21 21 20 21 21 21 21 21 21 21 22 22 22 22 22 21 20 20 20 21
14 13 12 11 10 10 10 10 11 12 12 12 12 12 13 13 13 13 13 14 14 14 15 15 16 16 16 16 14 14 15 17 17 17 16 16 17 16 15 15 15 15 14 13 13 12 13 15 16 17 16 16 16 17 18 18 19 19 19 19 21 22 22 21 20 20 21 21 22 21 21 20 21 21 21 21 21 22 22 22 22 21 20 20 21
Wind_Direction
230 236 239 240 242 244 246 246 242 238 238 241 244 248 250 248 242 239 239 239 242 246 247 248 250 254 257 259 259 259 262 268 273 277 280 282 285 287 288 287 287 290 293 293 292 292 292 292 292 291 292 293 294 294 295 297 299 301 302 303 304 304 305 308 312 317 319 320 323 324 324 323 322 321 321 324 328 330 331 330 330 331 329 326 324
232 237 239 241 242 242 244 246 244 239 239 240 241 244 246 244 240 238 239 241 243 245 248 250 252 255 257 259 259 259 264 270 273 276 279 282 285 288 286 286 287 290 291 290 290 291 291 291 290 289 290 293 293 293 295 297 297 298 299 300 300 301 304 308 312 317 318 319 321 322 322 322 322 323 325 329 331 331 332 332 333 333 331 327 326
233 238 240 241 242 242 243 246 245 241 238 238 239 241 242 241 241 241 240 242 244 246 249 252 253 256 259 260 259 260 264 269 272 275 279 283 287 288 285 286 288 288 288 287 288 288 289 289 288 288 290 292 292 293 294 293 293 294 295 295 297 301 304 308 312 316 319 322 322 322 322 322 324 327 331 333 333 332 333 334 335 335 333 330 328
234 238 240 241 242 242 243 245 246 242 238 237 239 239 239 241 243 244 243 244 247 249 251 253 255 258 260 261 260 261 265 269 274 278 281 285 288 287 284 285 286 285 284 285 285 285 285 285 285 287 289 291 291 291 289 288 289 290 291 294 298 302 306 310 315 319 323 326 326 325 325 327 331 333 334 335 335 334 334 336 336 336 336 333 329
234 240 241 242 242 241 242 245 245 242 238 237 239 238 238 241 245 246 245 246 248 251 252 254 256 258 261 263 263 263 266 271 277 281 284 287 288 286 284 285 284 282 280 281 282 281 281 281 283 285 288 289 288 285 283 284 286 287 289 294 298 302 307 313 319 324 327 329 329 329 329 331 335 337 336 337 336 335 335 337 338 338 338 335 330
235 241 243 243 243 241 240 243 244 242 240 238 239 239 240 242 245 247 248 248 249 251 252 253 256 259 263 265 265 267 271 276 282 286 287 288 287 286 285 284 284 282 280 280 279 277 277 278 281 283 285 284 281 280 281 282 283 286 291 295 298 302 309 317 324 328 329 330 331 332 334 335 337 339 339 339 338 336 336 338 340 340 339 336 331
238 241 243 243 244 242 240 241 242 242 241 239 239 240 242 243 245 247 248 249 251 252 252 253 256 260 265 268 270 271 275 279 283 285 285 284 283 284 282 283 285 285 282 280 276 273 275 277 277 280 282 280 279 278 278 278 283 288 291 294 298 304 314 322 327 328 330 331 333 336 338 338 339 341 342 340 339 338 337 338 340 341 342 340 334
240 242 243 243 243 241 239 238 240 240 240 239 239 241 243 244 244 246 248 249 251 252 253 254 258 263 268 272 273 273 275 277 279 282 283 282 282 282 279 280 284 286 283 279 273 272 274 274 276 280 280 277 276 274 274 280 287 288 289 293 300 309 318 323 326 330 332 333 335 338 339 339 340 342 342 340 341 342 341 341 341 341 342 344 340
242 244 243 242 242 240 237 236 237 238 237 237 240 242 243 244 244 245 247 249 250 251 253 257 261 266 270 273 272 272 273 276 279 283 284 282 280 277 274 276 282 285 282 276 272 271 272 273 278 280 276 273 271 271 278 285 286 284 287 294 303 312 318 322 328 335 335 333 335 339 340 339 341 343 343 344 344 344 343 340 340 340 341 345 346
241 243 242 240 240 238 235 234 235 235 235 237 241 242 243 244 245 245 246 248 250 251 255 260 263 266 268 270 271 270 272 277 283 285 282 278 273 267 266 274 280 281 276 270 269 270 272 276 278 277 274 270 269 273 280 282 278 280 288 297 306 313 317 324 332 336 336 334 335 339 341 342 344 345 345 345 344 343 341 339 340 343 343 345 348
239 240 238 237 238 237 235 234 234 233 233 236 240 241 243 244 245 246 247 248 250 252 257 261 263 265 268 271 274 274 275 281 284 282 274 269 265 260 263 272 275 273 269 266 267 269 272 275 275 273 271 266 268 275 277 274 273 280 289 296 304 311 318 327 333 335 335 336 337 339 343 346 347 346 344 343 343 343 342 341 343 346 347 347 348
238 238 235 234 236 236 233 232 232 231 232 235 238 240 242 245 246 248 248 249 251 254 258 261 263 267 269 271 275 276 277 280 282 278 270 265 260 257 261 266 268 269 266 263 265 267 269 272 272 271 267 264 270 275 270 266 272 279 286 294 302 311 320 328 333 334 337 340 339 340 346 349 348 344 342 343 345 345 345 345 346 348 351 351 349
237 236 234 234 235 234 231 230 231 231 232 234 237 239 242 245 247 250 251 250 250 253 257 261 265 268 268 268 272 274 274 275 276 273 268 262 255 253 255 260 263 265 261 259 263 264 262 267 271 268 264 266 272 270 263 265 272 278 286 294 303 314 322 328 333 336 339 341 341 344 349 349 345 342 343 346 347 347 347 347 348 349 351 352 351
235 234 231 232 234 233 230 228 230 231 232 234 236 239 243 246 248 251 252 251 251 254 259 262 266 267 266 266 270 272 271 272 273 272 266 258 251 248 250 255 258 258 256 256 260 261 259 265 268 263 263 268 269 263 260 266 272 277 284 292 303 314 322 329 333 338 340 340 343 349 350 345 342 343 347 349 350 349 348 347 347 347 349 352 354
231 230 229 230 233 233 230 228 228 230 230 233 236 238 242 246 249 251 251 251 252 255 260 264 265 265 265 268 271 272 274 276 276 275 269 257 247 245 248 252 254 255 256 256 257 259 261 264 261 258 262 267 263 257 259 264 269 273 281 290 303 315 323 329 335 339 339 339 345 351 347 342 343 349 352 352 351 350 347 346 345 346 347 351 355
225 225 226 228 231 233 230 227 226 228 229 232 235 238 241 246 250 251 252 253 253 256 260 263 264 265 268 271 272 274 279 281 278 276 269 255 245 245 247 250 254 257 257 255 256 258 261 261 257 257 263 262 256 253 257 261 266 272 281 293 306 317 323 329 336 337 336 340 347 349 344 343 349 353 354 353 351 348 346 345 346 347 348 349 353
221 223 225 227 230 231 230 226 224 226 229 232 235 239 243 247 251 253 253 254 255 256 258 261 263 267 270 270 269 272 277 279 277 274 266 252 244 245 247 249 255 258 255 253 257 260 260 257 257 261 261 256 252 252 256 261 266 273 283 296 308 318 324 330 335 335 336 342 347 346 342 346 352 355 356 355 352 348 346 346 348 349 349 349 351
219 222 224 226 228 230 228 224 223 226 228 231 235 240 244 248 251 253 253 254 254 254 255 259 262 265 268 268 268 271 276 279 278 273 263 249 242 245 248 249 251 253 252 253 257 260 259 258 263 267 258 252 251 252 255 260 265 272 285 297 310 320 325 331 334 334 338 342 344 342 342 347 354 356 357 356 353 349 348 349 350 349 348 349 351
217 220 223 225 229 230 227 224 225 228 228 230 235 240 244 247 249 250 252 254 255 255 257 260 263 264 267 268 270 276 282 283 281 273 262 249 241 245 248 249 251 252 250 251 255 258 258 259 265 268 258 253 253 253 256 261 265 272 285 297 309 319 325 329 332 333 337 338 338 339 341 348 355 357 357 358 355 351 353 354 352 350 348 350 352
217 219 221 225 228 228 226 225 227 229 227 229 235 241 245 248 250 254 257 258 258 258 258 262 265 267 269 270 276 283 285 284 285 280 268 252 245 246 248 254 263 265 256 249 253 256 257 259 265 266 258 253 253 253 255 260 265 272 283 295 309 318 322 327 330 332 333 330 331 336 341 349 356 357 357 358 356 356 359 359 356 354 351 351 353
214 216 219 223 226 227 226 227 229 229 226 229 237 242 247 252 255 258 260 258 258 259 260 261 262 262 265 268 272 278 280 284 288 284 268 251 247 245 245 253 265 267 256 249 250 251 253 258 264 263 256 252 251 251 254 258 264 272 281 293 306 314 320 327 330 329 327 324 328 336 343 351 356 355 356 358 358 360 4 3 0 0 357 354 354
211 213 216 220 224 224 224 227 230 230 228 232 239 244 249 253 253 256 259 258 258 259 257 257 259 263 267 267 269 277 283 283 282 273 256 248 248 243 242 249 256 257 254 252 251 252 254 260 265 263 256 251 248 248 250 256 262 269 278 290 304 311 318 327 328 322 320 321 327 337 345 352 354 354 355 358 358 2 6 5 5 6 5 2 360
209 212 215 218 219 219 218 220 224 227 230 236 241 245 250 253 255 260 263 264 266 268 264 264 272 275 271 268 273 284 286 279 270 262 254 251 248 242 240 246 249 250 254 255 254 255 257 262 267 264 254 249 247 246 248 254 260 267 276 288 300 308 318 327 322 315 316 321 328 337 346 351 352 352 355 357 359 2 5 4 7 10 9 9 8
205 209 212 213 212 209 209 214 219 225 232 239 244 247 252 257 261 266 266 261 266 274 275 270 271 271 270 275 281 281 274 265 262 261 257 251 246 240 238 242 247 251 253 254 253 254 255 257 260 259 252 248 247 246 247 252 258 265 273 285 295 306 319 324 316 311 315 322 329 338 346 350 351 351 355 356 358 2 3 2 4 9 11 13 12
200 203 205 205 204 202 206 214 221 227 235 243 249 253 258 261 264 266 260 251 254 265 272 268 265 267 275 281 278 264 257 260 262 260 257 249 241 235 234 240 247 250 251 251 250 252 253 251 249 248 247 248 247 245 246 251 257 263 271 282 292 302 314 316 311 310 317 324 331 339 346 350 350 351 354 356 358 0 1 359 2 6 9 13 15
199 200 201 201 201 205 213 220 226 232 239 245 250 254 257 261 264 264 260 256 257 261 264 263 265 271 278 277 265 252 254 260 258 253 250 244 236 232 234 242 249 253 254 252 250 251 252 249 244 241 242 246 246 243 244 249 255 261 268 278 287 296 306 309 309 313 319 326 333 339 344 348 349 349 353 355 357 359 359 358 1 3 5 9 13
197 198 198 197 200 209 217 224 229 235 240 245 250 253 254 258 265 267 267 269 267 260 254 256 261 270 273 263 249 246 251 253 251 249 244 239 235 232 234 242 250 255 256 252 250 251 251 249 244 241 243 247 246 242 243 248 253 259 267 275 283 291 299 303 308 315 322 328 333 337 342 346 347 348 352 354 356 358 357 356 359 2 3 6 9
194 195 195 196 201 209 217 223 229 236 242 248 254 258 259 263 270 276 277 274 266 257 256 258 260 260 258 252 249 253 253 250 249 246 237 233 233 233 236 243 250 253 253 251 250 251 251 250 247 246 248 249 246 243 243 247 252 258 265 272 279 286 292 297 305 316 325 329 330 333 338 342 344 347 351 353 354 356 355 355 358 0 2 6 7
191 192 195 199 204 209 217 225 232 241 250 256 260 264 266 270 274 277 276 271 263 257 255 253 250 250 254 258 259 258 253 248 246 243 236 233 233 234 237 242 247 250 250 249 250 250 251 251 250 249 250 250 246 244 244 246 251 257 262 269 278 285 288 292 302 315 324 326 327 330 334 338 342 346 350 352 352 352 353 355 358 358 0 6 8
194 195 198 205 210 215 222 230 239 248 255 260 264 267 268 270 272 272 270 266 263 259 252 246 249 254 259 263 262 257 255 257 258 254 246 240 239 240 241 245 251 252 251 251 252 253 255 254 252 250 251 250 247 245 244 247 251 256 262 270 277 282 285 291 301 313 319 322 324 326 330 336 341 344 348 350 349 347 350 355 358 357 357 2 7
201 203 207 213 220 226 233 238 244 250 254 258 261 263 262 263 265 267 267 264 260 257 253 251 253 257 260 263 263 261 263 270 270 264 254 247 245 247 249 253 257 257 256 256 256 256 257 257 253 250 250 250 247 245 245 248 252 255 261 269 274 279 286 294 300 305 311 316 320 324 329 336 341 342 345 347 342 341 349 355 356 355 355 359 3
207 210 215 223 230 236 240 244 247 250 254 256 256 255 256 259 263 266 267 264 257 248 245 248 251 254 258 262 264 264 265 266 265 260 256 252 250 252 255 258 259 258 258 259 259 259 259 258 255 252 251 250 247 245 245 249 252 254 259 265 271 278 285 290 293 296 304 312 319 324 329 335 338 339 343 342 335 337 348 354 353 351 353 358 1
215 215 221 229 235 239 242 246 250 252 254 254 252 250 251 255 260 263 264 261 253 242 239 244 249 252 256 259 261 264 264 260 256 257 258 257 255 255 257 259 260 260 260 262 262 260 259 259 257 256 255 252 249 247 247 249 252 255 258 262 269 275 281 285 289 295 302 310 317 324 329 332 334 336 339 336 331 336 346 351 349 348 350 354 357
225 225 230 235 238 240 243 247 251 253 253 249 245 244 247 251 256 261 260 254 245 238 238 246 252 256 257 256 256 260 262 255 249 253 257 258 258 258 258 259 260 261 263 263 262 260 259 259 258 256 254 253 250 248 249 251 254 255 257 261 267 272 276 283 290 295 301 307 314 322 327 329 330 332 333 330 329 336 344 346 346 347 349 350 350
236 236 239 242 244 245 245 246 247 247 246 245 243 240 241 246 253 256 250 241 237 237 241 248 255 260 260 258 258 263 264 254 244 244 251 255 258 259 259 260 262 264 265 265 263 263 262 261 258 255 253 252 250 250 251 254 255 255 257 262 266 270 274 281 288 291 296 303 311 319 324 325 326 328 328 326 328 335 340 341 342 345 347 345 343
249 249 252 253 253 251 249 250 248 242 239 242 245 245 243 246 251 250 243 239 240 243 247 253 258 262 264 266 266 266 263 254 247 247 252 256 259 260 261 261 262 263 264 266 265 264 263 260 257 254 252 251 250 250 252 254 253 253 256 263 268 271 274 279 284 288 294 302 309 315 319 321 323 323 322 323 327 332 336 337 340 343 342 339 339
258 260 263 264 263 258 254 253 250 245 244 246 249 249 249 251 253 253 249 245 242 243 249 254 258 262 268 273 270 262 256 252 251 252 253 256 259 262 262 262 262 263 264 265 264 263 262 260 258 254 252 250 249 249 251 252 250 251 256 263 268 270 272 276 281 286 292 298 303 309 314 318 319 317 317 321 325 328 331 334 337 339 336 335 337
258 262 266 271 274 271 264 256 249 248 250 250 246 246 251 257 257 257 254 246 238 241 249 254 255 258 261 265 268 264 258 254 254 255 255 256 258 261 262 263 264 265 263 260 257 256 257 257 256 255 253 250 248 249 252 252 250 252 257 263 266 269 271 275 280 284 289 294 300 306 311 314 314 314 316 320 323 324 327 331 333 334 333 334 337
264 267 271 275 276 274 267 257 249 247 247 245 242 245 252 258 259 256 250 242 239 245 250 252 255 256 253 256 265 268 264 258 257 257 257 256 256 258 260 262 263 264 262 257 252 251 250 252 253 254 253 250 248 250 253 252 250 253 257 262 265 268 269 273 277 282 287 293 298 304 308 311 312 313 315 318 320 321 324 328 330 331 332 335 337
266 267 270 270 266 262 258 250 244 242 241 240 242 246 249 253 255 250 240 237 244 250 250 248 250 253 256 261 267 266 260 257 257 257 257 257 255 256 258 259 260 262 261 256 251 249 247 247 248 250 250 248 248 251 252 250 249 254 258 260 261 264 269 274 278 281 286 292 297 302 306 308 310 311 313 315 317 319 322 326 328 329 331 334 336
260 258 257 255 253 251 248 241 236 235 236 237 241 246 247 247 245 239 233 240 248 250 246 243 244 250 261 269 270 264 259 258 258 258 258 259 258 258 260 261 261 261 260 257 253 250 247 245 244 245 245 246 247 250 251 251 252 257 260 260 257 259 267 276 278 280 285 292 297 299 301 304 306 307 310 312 314 317 321 323 325 326 329 332 334
253 247 239 235 233 233 233 232 232 235 236 236 240 244 246 246 240 231 232 243 247 241 237 242 246 250 261 271 271 267 263 261 259 259 261 263 264 264 263 262 262 262 261 258 255 252 249 245 243 242 242 243 245 247 249 251 255 259 263 263 260 258 263 272 278 281 286 293 295 294 297 300 302 304 307 309 311 315 318 319 320 325 328 330 331
244 239 230 225 225 225 226 227 229 232 234 236 237 237 242 251 250 236 228 236 241 236 233 243 249 251 260 271 272 267 262 259 259 263 269 274 277 276 272 268 266 265 264 261 258 256 254 251 247 244 241 241 243 244 248 253 256 259 263 266 266 263 263 268 277 282 284 288 289 289 291 296 298 300 304 306 308 310 313 315 319 324 327 328 328
236 235 230 226 223 221 222 225 228 231 234 237 237 233 233 242 249 243 234 241 252 249 244 248 253 257 265 269 264 256 252 252 255 263 272 279 283 286 284 279 273 268 265 263 261 259 258 256 253 249 245 242 243 246 251 255 258 260 262 267 271 270 265 265 272 279 280 279 280 281 284 290 294 296 299 302 303 306 311 315 319 322 324 324 326
231 229 228 226 223 220 222 224 228 231 232 235 239 238 232 233 238 242 244 255 264 260 255 256 260 263 265 261 250 247 251 253 255 260 265 269 275 283 287 286 280 272 267 262 259 258 259 258 255 252 248 246 247 251 253 256 258 261 263 267 272 273 267 263 268 275 277 277 278 280 283 287 290 292 295 298 300 305 310 315 317 319 320 322 324
235 231 226 222 221 222 224 225 228 233 236 237 240 240 234 230 237 246 249 250 254 256 258 262 264 265 265 260 253 254 258 259 258 259 259 262 271 278 281 282 279 273 266 261 257 256 257 256 253 250 247 245 247 251 255 258 260 262 264 267 271 271 266 262 266 273 277 278 279 279 280 284 288 292 297 299 301 306 310 312 313 314 316 319 323
250 246 235 224 221 223 229 233 237 239 239 238 237 233 226 226 235 244 245 245 248 251 254 258 262 265 267 264 260 261 264 266 266 264 263 266 272 276 277 279 276 270 264 261 258 256 254 252 250 247 245 244 246 249 255 260 263 264 266 269 270 266 262 263 269 275 277 276 275 275 278 282 287 292 297 300 302 305 307 307 307 309 312 316 321
262 261 241 226 223 226 230 235 239 240 237 232 228 224 220 223 231 236 238 243 247 250 251 256 262 267 266 261 259 262 269 274 274 270 268 268 270 272 277 280 278 271 265 262 258 252 246 244 245 245 244 243 243 247 252 258 261 262 264 265 263 260 258 262 268 273 273 272 272 273 277 283 287 291 293 295 297 299 300 299 301 304 308 314 319
257 255 238 229 229 231 231 232 234 235 232 226 222 223 225 228 232 234 237 244 249 252 255 260 263 264 263 261 260 263 268 273 275 274 275 276 275 274 273 274 274 274 272 267 260 250 242 238 240 243 243 241 240 243 247 251 255 259 261 263 263 261 259 260 264 268 270 269 270 272 276 280 283 286 287 289 291 293 294 295 298 301 304 310 316
251 247 239 232 227 225 228 232 235 236 233 226 219 219 224 230 232 232 235 243 249 253 258 262 265 267 268 265 261 258 259 262 267 272 277 280 280 277 272 269 271 277 279 274 264 251 240 234 235 238 239 238 237 239 242 247 253 257 261 265 266 262 258 259 264 268 269 267 267 269 272 274 277 279 282 285 287 288 290 293 295 297 300 307 312
253 247 240 232 225 221 224 228 232 237 239 236 228 220 220 224 230 232 234 239 245 250 256 262 267 272 275 273 267 261 259 260 262 266 270 274 277 278 276 274 277 283 287 285 276 261 247 239 237 237 236 236 236 238 242 248 252 257 262 265 262 258 257 260 267 269 268 266 266 267 269 272 275 278 281 282 284 286 289 292 293 294 297 303 308
Height
3122 3123 3125 3126 3128 3129 3131 3132 3133 3134 3135 3136 3137 3138 3139 3140 3141 3141 3142 3143 3144 3145 3146 3146 3147 3147 3148 3149 3149 3149 3150 3150 3151 3151 3151 3152 3152 3152 3151 3151 3150 3150 3149 3148 3148 3147 3146 3146 3145 3144 3144 3143 3142 3141 3140 3139 3139 3138 3137 3136 3135 3135 3134 3133 3132 3131 3129 3126 3125 3123 3121 3119 3117 3115 3112 3109 3106 3104 3101 3098 3095 3091 3087 3083 3079
3119 3121 3122 3123 3125 3127 3128 3129 3130 3132 3133 3134 3135 3136 3137 3138 3139 3139 3140 3141 3143 3143 3144 3145 3145 3146 3146 3147 3147 3148 3148 3149 3149 3149 3150 3150 3150 3150 3149 3148 3148 3147 3146 3146 3145 3145 3144 3143 3143 3142 3141 3140 3140 3139 3138 3138 3137 3137 3136 3135 3134 3133 3132 3131 3131 3130 3128 3126 3124 3122 3119 3117 3115 3112 3109 3106 3103 3100 3098 3095 3092 3088 3084 3079 3075
3116 3118 3119 3121 3122 3124 3125 3126 3128 3129 3130 3132 3133 3134 3135 3136 3136 3137 3138 3139 3141 3142 3142 3143 3143 3144 3144 3145 3145 3146 3147 3147 3147 3148 3148 3148 3148 3147 3147 3146 3146 3145 3144 3143 3143 3142 3142 3141 3141 3140 3139 3139 3138 3137 3137 3137 3136 3135 3134 3133 3132 3131 3131 3130 3129 3128 3127 3125 3122 3120 3118 3116 3113 3110 3106 3103 3100 3097 3094 3092 3088 3085 3081 3076 3072
3113 3114 3116 3118 3119 3121 3122 3123 3125 3127 3128 3129 3131 3132 3133 3134 3134 3135 3136 3137 3138 3139 3140 3141 3141 3142 3142 3143 3144 3144 3145 3145 3146 3146 3146 3146 3146 3145 3144 3143 3143 3142 3142 3141 3141 3140 3140 3139 3139 3138 3137 3137 3136 3136 3136 3135 3134 3134 3133 3132 3131 3130 3129 3128 3127 3126 3124 3123 3121 3118 3115 3113 3110 3106 3103 3100 3098 3094 3091 3088 3085 3082 3078 3074 3069
3110 3111 3113 3115 3116 3118 3120 3121 3122 3124 3126 3127 3129 3130 3131 3132 3132 3133 3134 3135 3136 3137 3138 3138 3139 3140 3141 3141 3142 3143 3143 3144 3144 3144 3144 3143 3143 3142 3141 3141 3140 3140 3139 3138 3138 3138 3137 3137 3136 3136 3136 3135 3135 3134 3134 3133 3133 3132 3131 3130 3129 3128 3128 3126 3125 3123 3122 3120 3118 3116 3113 3110 3107 3104 3101 3097 3095 3091 3088 3085 3082 3079 3075 3071 3066
3106 3107 3109 3111 3113 3115 3117 3118 3119 3121 3123 3125 3127 3128 3129 3129 3130 3131 3132 3133 3134 3135 3136 3136 3137 3138 3139 3140 3140 3141 3141 3142 3142 3141 3141 3141 3140 3140 3139 3138 3138 3137 3137 3136 3136 3135 3135 3135 3134 3134 3134 3133 3133 3133 3132 3132 3131 3131 3130 3129 3128 3127 3126 3125 3123 3121 3120 3118 3116 3114 3111 3107 3105 3102 3099 3095 3091 3088 3084 3082 3080 3077 3073 3069 3063
3103 3104 3106 3108 3110 3113 3115 3116 3117 3119 3121 3123 3125 3125 3126 3127 3128 3129 3130 3131 3132 3133 3134 3135 3135 3136 3137 3138 3138 3139 3139 3139 3139 3139 3138 3138 3138 3137 3136 3136 3136 3135 3134 3134 3134 3133 3133 3133 3132 3132 3132 3131 3131 3131 3131 3130 3130 3129 3128 3127 3126 3126 3124 3123 3121 3120 3118 3116 3114 3112 3109 3105 3102 3099 3096 3093 3090 3085 3081 3078 3076 3073 3070 3066 3060
3099 3101 3103 3105 3108 3110 3112 3113 3115 3116 3118 3121 3122 3123 3124 3125 3126 3127 3128 3129 3130 3131 3131 3132 3133 3134 3135 3135 3136 3136 3136 3136 3136 3136 3135 3135 3135 3134 3134 3134 3133 3133 3132 3132 3132 3132 3132 3131 3130 3130 3130 3130 3129 3129 3129 3128 3128 3127 3126 3125 3125 3124 3122 3121 3120 3118 3116 3114 3112 3110 3107 3104 3100 3097 3094 3091 3087 3083 3078 3074 3071 3068 3066 3064 3058
3096 3097 3100 3102 3105 3107 3109 3111 3112 3114 3116 3118 3119 3120 3121 3122 3123 3125 3126 3127 3128 3128 3129 3130 3131 3132 3132 3133 3133 3133 3133 3133 3133 3133 3133 3132 3132 3131 3131 3131 3131 3130 3130 3130 3130 3130 3130 3129 3129 3129 3128 3128 3128 3128 3127 3127 3126 3125 3125 3124 3123 3122 3121 3119 3118 3116 3114 3112 3110 3108 3106 3102 3098 3095 3092 3088 3083 3079 3076 3072 3069 3066 3063 3061 3057
3093 3094 3097 3099 3101 3104 3106 3108 3110 3112 3114 3115 3117 3118 3119 3120 3121 3122 3124 3125 3125 3126 3127 3127 3128 3129 3130 3130 3130 3130 3130 3130 3130 3130 3130 3129 3129 3128 3129 3129 3128 3128 3128 3128 3128 3128 3128 3127 3127 3127 3126 3126 3126 3126 3125 3125 3124 3124 3123 3122 3121 3120 3119 3118 3116 3115 3113 3111 3108 3106 3104 3100 3096 3092 3088 3085 3081 3077 3074 3070 3067 3064 3060 3056 3054
3089 3092 3094 3096 3098 3101 3103 3105 3107 3109 3111 3112 3114 3116 3117 3118 3119 3120 3121 3122 3123 3123 3124 3125 3125 3126 3127 3127 3127 3127 3127 3127 3127 3127 3127 3126 3126 3126 3126 3126 3126 3126 3126 3126 3126 3127 3126 3125 3125 3125 3125 3125 3125 3124 3124 3123 3122 3122 3121 3120 3120 3119 3117 3116 3114 3113 3111 3109 3107 3104 3101 3098 3094 3090 3086 3083 3080 3076 3072 3068 3064 3061 3057 3052 3048
3086 3089 3091 3093 3095 3098 3100 3102 3105 3107 3108 3110 3112 3113 3114 3115 3116 3117 3119 3119 3120 3120 3121 3122 3122 3123 3124 3124 3124 3124 3124 3124 3124 3124 3124 3123 3123 3123 3123 3123 3123 3123 3124 3124 3124 3125 3124 3123 3123 3123 3123 3123 3123 3122 3122 3121 3121 3120 3120 3119 3118 3117 3115 3114 3113 3111 3110 3108 3105 3102 3099 3096 3092 3089 3085 3081 3078 3074 3070 3066 3062 3059 3055 3050 3045
3084 3086 3088 3090 3092 3095 3097 3100 3102 3103 3105 3107 3109 3110 3111 3112 3113 3114 3116 3117 3117 3118 3118 3119 3120 3120 3121 3121 3121 3121 3121 3121 3121 3121 3121 3120 3121 3121 3121 3121 3121 3121 3121 3122 3122 3122 3122 3121 3121 3121 3121 3122 3121 3121 3120 3120 3119 3119 3118 3117 3116 3115 3114 3112 3111 3110 3108 3106 3104 3101 3097 3094 3091 3088 3084 3079 3075 3071 3067 3064 3060 3057 3054 3050 3046
3081 3083 3085 3087 3089 3092 3095 3098 3099 3101 3103 3104 3106 3107 3108 3109 3111 3112 3113 3114 3114 3115 3115 3116 3117 3117 3118 3118 3118 3118 3118 3118 3118 3118 3118 3118 3118 3118 3118 3119 3119 3119 3119 3119 3120 3120 3120 3119 3119 3120 3120 3120 3119 3119 3119 3118 3118 3117 3117 3116 3115 3113 3112 3111 3109 3108 3106 3104 3102 3099 3096 3094 3091 3087 3082 3077 3072 3068 3065 3061 3058 3055 3053 3050 3047
3077 3080 3082 3084 3086 3089 3093 3095 3096 3098 3100 3102 3103 3105 3106 3107 3108 3109 3110 3111 3111 3112 3112 3113 3114 3114 3115 3115 3115 3115 3115 3115 3115 3115 3115 3115 3115 3116 3116 3116 3117 3117 3117 3117 3118 3118 3118 3117 3118 3118 3118 3118 3117 3117 3117 3117 3116 3116 3115 3114 3113 3112 3111 3109 3108 3106 3105 3103 3101 3098 3096 3094 3090 3085 3080 3075 3071 3067 3064 3061 3058 3054 3051 3049 3047
3074 3076 3079 3082 3084 3087 3090 3092 3094 3095 3097 3099 3100 3102 3103 3104 3105 3106 3107 3108 3108 3109 3109 3110 3110 3111 3111 3112 3113 3112 3112 3112 3112 3112 3112 3112 3112 3113 3114 3114 3114 3114 3114 3115 3115 3115 3115 3116 3116 3116 3116 3116 3115 3115 3115 3115 3115 3114 3113 3112 3111 3110 3109 3108 3106 3105 3103 3102 3099 3097 3095 3092 3088 3083 3079 3075 3071 3067 3064 3061 3058 3054 3050 3046 3044
3071 3073 3076 3079 3082 3085 3087 3090 3091 3092 3094 3095 3097 3099 3100 3101 3102 3104 3104 3104 3105 3106 3107 3107 3108 3108 3108 3109 3110 3110 3110 3109 3110 3110 3110 3110 3110 3111 3112 3112 3112 3112 3112 3112 3113 3113 3113 3113 3114 3114 3114 3113 3113 3113 3113 3113 3113 3112 3111 3110 3109 3108 3107 3106 3104 3103 3102 3100 3097 3095 3093 3091 3087 3083 3079 3075 3071 3067 3063 3059 3055 3051 3047 3043 3040
3068 3070 3073 3076 3079 3082 3085 3087 3088 3088 3090 3092 3094 3095 3097 3098 3100 3101 3101 3101 3102 3103 3104 3104 3104 3104 3105 3106 3107 3107 3107 3106 3106 3107 3107 3107 3107 3108 3109 3110 3110 3110 3110 3110 3110 3110 3111 3111 3111 3112 3112 3111 3111 3111 3111 3111 3111 3110 3110 3109 3108 3106 3105 3104 3103 3101 3100 3098 3096 3094 3092 3090 3086 3083 3079 3075 3071 3067 3063 3058 3054 3050 3046 3042 3038
3065 3068 3071 3074 3076 3079 3081 3083 3084 3085 3086 3089 3091 3092 3094 3096 3097 3098 3098 3098 3099 3100 3100 3101 3101 3102 3102 3103 3104 3105 3105 3104 3103 3104 3104 3104 3104 3105 3106 3107 3107 3107 3107 3107 3108 3108 3108 3109 3109 3109 3109 3109 3109 3109 3109 3109 3109 3108 3108 3107 3106 3105 3104 3103 3101 3100 3098 3097 3095 3093 3091 3089 3086 3083 3079 3076 3072 3068 3063 3058 3054 3049 3045 3042 3038
3063 3065 3068 3071 3073 3075 3078 3080 3080 3081 3083 3086 3088 3089 3091 3092 3093 3094 3094 3095 3096 3097 3098 3098 3099 3099 3100 3100 3102 3102 3102 3101 3101 3100 3100 3101 3102 3103 3104 3105 3106 3106 3105 3105 3105 3106 3106 3106 3107 3107 3107 3107 3107 3107 3107 3107 3107 3107 3106 3105 3104 3103 3102 3101 3100 3099 3098 3096 3095 3093 3090 3087 3085 3082 3079 3076 3072 3068 3064 3059 3055 3050 3045 3042 3038
3060 3063 3065 3068 3070 3072 3075 3076 3076 3078 3081 3083 3085 3086 3088 3089 3090 3091 3091 3092 3093 3094 3095 3096 3096 3097 3097 3097 3098 3099 3099 3099 3098 3097 3096 3098 3099 3100 3101 3102 3103 3103 3103 3103 3103 3104 3104 3104 3104 3105 3105 3105 3105 3105 3105 3105 3105 3105 3104 3104 3103 3102 3101 3099 3098 3097 3096 3095 3093 3091 3088 3085 3083 3081 3078 3075 3072 3068 3064 3060 3056 3051 3046 3042 3037
3057 3060 3062 3065 3067 3070 3072 3074 3074 3077 3079 3081 3082 3084 3085 3086 3087 3088 3088 3089 3090 3091 3092 3093 3093 3094 3094 3094 3095 3096 3096 3096 3095 3094 3093 3094 3095 3096 3098 3099 3100 3100 3100 3101 3101 3101 3102 3102 3102 3103 3103 3103 3103 3103 3103 3103 3103 3103 3102 3102 3101 3100 3099 3098 3097 3096 3095 3093 3091 3089 3086 3083 3082 3080 3077 3074 3071 3067 3064 3061 3057 3052 3048 3044 3039
3054 3057 3059 3062 3064 3067 3070 3071 3073 3075 3076 3077 3079 3081 3082 3083 3084 3084 3085 3085 3086 3087 3088 3089 3090 3090 3091 3091 3092 3093 3092 3092 3092 3091 3091 3092 3093 3094 3095 3096 3097 3097 3097 3098 3099 3099 3100 3100 3100 3100 3101 3101 3101 3101 3101 3101 3101 3101 3100 3100 3099 3099 3098 3096 3096 3094 3093 3091 3089 3087 3084 3082 3080 3078 3075 3072 3069 3066 3062 3060 3057 3053 3050 3046 3042
3051 3054 3056 3059 3061 3064 3067 3069 3070 3072 3073 3075 3077 3078 3079 3080 3081 3081 3081 3082 3083 3084 3085 3086 3087 3087 3088 3088 3089 3089 3089 3088 3089 3089 3089 3090 3091 3092 3092 3093 3094 3094 3095 3096 3096 3097 3098 3098 3097 3097 3098 3099 3099 3099 3099 3099 3099 3099 3098 3098 3098 3097 3096 3095 3094 3093 3091 3090 3087 3085 3083 3080 3078 3076 3073 3070 3067 3064 3062 3059 3057 3054 3051 3047 3043
3048 3051 3053 3056 3059 3062 3064 3066 3067 3069 3071 3072 3074 3075 3076 3077 3077 3078 3079 3081 3082 3082 3082 3083 3084 3084 3085 3086 3086 3086 3086 3086 3086 3087 3087 3087 3088 3089 3090 3090 3091 3091 3092 3093 3094 3095 3095 3095 3095 3095 3095 3096 3097 3097 3097 3097 3097 3097 3096 3096 3096 3095 3094 3094 3093 3091 3090 3088 3085 3083 3081 3079 3077 3075 3072 3069 3066 3063 3061 3059 3056 3053 3050 3048 3044
3046 3048 3051 3054 3056 3059 3060 3062 3064 3066 3068 3070 3071 3072 3073 3074 3074 3075 3076 3078 3078 3079 3080 3081 3081 3081 3082 3083 3083 3084 3084 3083 3084 3084 3085 3085 3086 3087 3087 3088 3088 3088 3089 3090 3091 3092 3092 3093 3093 3093 3093 3093 3094 3094 3095 3094 3095 3095 3094 3094 3094 3093 3092 3092 3091 3089 3088 3086 3083 3082 3080 3078 3076 3074 3071 3068 3066 3062 3060 3057 3054 3051 3048 3045 3043
3044 3046 3049 3052 3054 3056 3058 3060 3062 3064 3065 3067 3068 3069 3070 3071 3072 3073 3074 3074 3075 3076 3077 3078 3078 3079 3079 3080 3081 3081 3081 3081 3081 3082 3082 3083 3084 3084 3084 3085 3085 3086 3086 3087 3088 3089 3089 3090 3090 3090 3090 3091 3091 3092 3092 3092 3092 3092 3092 3092 3091 3091 3090 3090 3089 3087 3085 3084 3082 3080 3078 3077 3075 3073 3070 3067 3065 3062 3059 3056 3053 3050 3046 3043 3040
3042 3045 3047 3049 3052 3054 3056 3058 3060 3061 3063 3065 3066 3067 3068 3069 3070 3070 3071 3071 3072 3073 3074 3075 3075 3076 3077 3077 3078 3079 3079 3078 3078 3079 3080 3081 3081 3081 3082 3082 3083 3083 3084 3084 3085 3086 3086 3087 3087 3088 3088 3089 3089 3090 3090 3090 3090 3090 3090 3090 3089 3089 3088 3087 3086 3085 3083 3082 3080 3078 3077 3075 3073 3071 3069 3066 3063 3061 3058 3055 3052 3049 3046 3043 3039
3041 3043 3045 3047 3049 3051 3053 3055 3057 3059 3060 3062 3063 3064 3065 3066 3067 3067 3068 3068 3069 3070 3070 3071 3072 3073 3074 3075 3076 3076 3076 3076 3075 3076 3077 3078 3078 3078 3079 3080 3080 3081 3081 3081 3082 3082 3083 3084 3084 3085 3086 3086 3087 3087 3087 3087 3087 3087 3087 3087 3087 3086 3086 3085 3084 3083 3081 3080 3079 3077 3075 3074 3072 3069 3067 3065 3062 3060 3057 3054 3051 3048 3046 3043 3039
3040 3042 3044 3046 3047 3049 3051 3053 3055 3056 3058 3059 3060 3061 3062 3063 3064 3064 3065 3065 3066 3066 3067 3069 3069 3070 3071 3072 3073 3073 3074 3073 3073 3073 3075 3075 3076 3076 3076 3077 3077 3078 3078 3078 3079 3079 3080 3081 3082 3082 3083 3083 3084 3084 3085 3085 3085 3085 3085 3085 3084 3084 3084 3083 3082 3081 3079 3078 3077 3075 3074 3072 3070 3068 3066 3063 3061 3059 3057 3053 3050 3048 3045 3042 3039
3039 3041 3043 3044 3046 3047 3049 3050 3052 3054 3055 3056 3057 3058 3059 3060 3061 3062 3062 3063 3063 3064 3065 3066 3066 3067 3068 3069 3070 3070 3071 3071 3070 3070 3071 3073 3073 3073 3074 3074 3075 3075 3075 3075 3076 3077 3077 3078 3079 3079 3080 3080 3081 3081 3082 3082 3082 3082 3082 3082 3082 3082 3081 3080 3079 3079 3078 3077 3075 3074 3072 3070 3068 3066 3064 3062 3060 3059 3056 3052 3050 3047 3045 3042 3039
3038 3040 3041 3042 3044 3045 3046 3048 3049 3050 3052 3053 3054 3055 3056 3057 3058 3059 3060 3060 3061 3062 3062 3063 3063 3064 3065 3066 3067 3068 3068 3068 3068 3067 3068 3069 3070 3071 3071 3071 3072 3072 3072 3072 3073 3074 3074 3075 3076 3076 3077 3077 3078 3078 3079 3079 3079 3080 3080 3080 3079 3079 3078 3078 3077 3077 3076 3074 3073 3071 3070 3068 3066 3064 3062 3060 3059 3057 3054 3051 3049 3046 3044 3042 3039
3036 3038 3039 3040 3041 3042 3043 3045 3046 3047 3048 3050 3051 3052 3054 3055 3056 3057 3057 3057 3058 3059 3060 3060 3060 3061 3062 3063 3064 3064 3065 3065 3065 3065 3065 3066 3067 3068 3068 3069 3069 3069 3069 3069 3070 3071 3071 3072 3073 3073 3074 3074 3075 3075 3076 3076 3077 3077 3077 3077 3077 3076 3076 3076 3075 3074 3073 3072 3071 3069 3068 3066 3064 3063 3061 3059 3058 3055 3052 3050 3048 3045 3043 3041 3039
3034 3036 3037 3037 3038 3039 3040 3042 3043 3044 3045 3046 3048 3049 3051 3052 3053 3054 3054 3054 3055 3056 3057 3057 3057 3058 3059 3060 3060 3061 3061 3062 3062 3062 3062 3063 3064 3065 3065 3065 3066 3066 3066 3067 3067 3068 3068 3069 3070 3070 3071 3071 3072 3072 3073 3073 3074 3074 3074 3074 3074 3074 3073 3073 3072 3071 3071 3070 3068 3067 3066 3064 3063 3061 3059 3058 3056 3054 3051 3049 3046 3044 3042 3039 3037
3032 3033 3034 3034 3035 3036 3037 3038 3039 3040 3041 3043 3045 3046 3048 3049 3050 3050 3051 3051 3052 3053 3053 3054 3054 3055 3055 3056 3057 3057 3058 3059 3059 3059 3059 3060 3061 3061 3062 3062 3063 3063 3063 3064 3064 3065 3065 3066 3067 3067 3067 3068 3069 3069 3070 3070 3071 3071 3071 3071 3071 3071 3071 3070 3070 3069 3068 3067 3066 3065 3064 3062 3061 3059 3058 3056 3054 3052 3050 3048 3045 3043 3040 3038 3036
3029 3030 3031 3032 3032 3033 3034 3035 3036 3037 3038 3041 3043 3044 3044 3045 3046 3047 3048 3048 3049 3050 3050 3051 3051 3052 3052 3053 3053 3054 3055 3056 3056 3057 3057 3057 3057 3058 3059 3059 3060 3060 3060 3061 3061 3062 3062 3063 3063 3064 3064 3065 3065 3066 3066 3067 3067 3068 3068 3068 3068 3068 3068 3067 3067 3067 3066 3065 3064 3062 3061 3060 3059 3057 3056 3054 3052 3050 3048 3046 3044 3042 3039 3037 3036
3026 3027 3027 3029 3030 3031 3032 3033 3033 3034 3036 3038 3040 3041 3041 3042 3043 3044 3044 3045 3046 3047 3047 3048 3049 3049 3049 3050 3050 3051 3051 3052 3053 3054 3054 3054 3055 3055 3056 3056 3056 3057 3057 3057 3058 3058 3059 3059 3060 3060 3060 3061 3062 3062 3063 3064 3064 3064 3065 3065 3065 3065 3065 3065 3065 3064 3063 3062 3062 3060 3059 3058 3057 3056 3054 3053 3051 3049 3047 3045 3043 3041 3039 3037 3035
3022 3023 3023 3025 3026 3027 3029 3030 3031 3033 3034 3035 3037 3037 3037 3038 3039 3040 3041 3042 3043 3044 3044 3045 3046 3046 3047 3047 3047 3048 3048 3049 3050 3051 3051 3051 3051 3051 3052 3052 3053 3053 3053 3054 3054 3054 3055 3055 3056 3056 3057 3058 3059 3059 3060 3060 3061 3061 3061 3062 3062 3062 3062 3062 3062 3061 3061 3060 3059 3058 3057 3056 3055 3054 3052 3051 3049 3047 3045 3043 3041 3040 3038 3036 3033
3018 3018 3019 3021 3022 3023 3025 3026 3028 3029 3030 3032 3033 3033 3033 3035 3036 3037 3038 3039 3040 3041 3041 3042 3043 3043 3044 3044 3044 3045 3045 3046 3046 3047 3047 3047 3048 3048 3048 3048 3049 3049 3049 3050 3050 3050 3051 3052 3052 3053 3054 3055 3056 3056 3057 3057 3058 3058 3058 3059 3059 3059 3059 3059 3059 3059 3058 3057 3056 3055 3055 3054 3053 3051 3050 3048 3047 3045 3044 3042 3040 3038 3036 3034 3032
3015 3016 3017 3018 3019 3020 3021 3023 3024 3025 3026 3028 3029 3029 3030 3031 3033 3033 3034 3035 3036 3037 3038 3039 3040 3041 3041 3041 3041 3041 3042 3043 3043 3043 3043 3044 3044 3044 3044 3045 3045 3045 3045 3046 3046 3046 3047 3048 3048 3049 3050 3051 3052 3053 3053 3054 3054 3054 3055 3055 3056 3056 3056 3056 3056 3056 3055 3055 3054 3053 3052 3051 3050 3049 3048 3046 3045 3043 3042 3040 3038 3036 3034 3032 3031
3013 3014 3015 3016 3017 3017 3018 3019 3021 3022 3023 3024 3026 3026 3026 3028 3029 3030 3031 3032 3033 3034 3035 3036 3037 3038 3038 3038 3038 3038 3039 3039 3040 3040 3040 3040 3041 3041 3041 3041 3041 3041 3041 3042 3042 3042 3043 3044 3044 3045 3046 3047 3048 3049 3049 3050 3051 3051 3052 3052 3053 3053 3053 3053 3053 3053 3053 3052 3051 3050 3049 3048 3048 3047 3046 3044 3043 3041 3040 3038 3037 3035 3033 3031 3029
3010 3011 3012 3013 3014 3015 3016 3017 3018 3019 3020 3021 3022 3023 3023 3024 3025 3026 3028 3029 3030 3031 3032 3033 3034 3035 3036 3036 3035 3034 3035 3036 3037 3037 3037 3038 3038 3038 3038 3038 3038 3038 3038 3038 3038 3038 3039 3040 3040 3041 3042 3043 3044 3045 3046 3047 3047 3048 3049 3049 3050 3050 3050 3050 3050 3050 3049 3049 3048 3047 3047 3046 3045 3044 3043 3042 3041 3039 3038 3036 3035 3033 3031 3029 3027
3007 3008 3010 3011 3012 3013 3014 3014 3015 3016 3017 3018 3019 3020 3020 3021 3022 3023 3024 3025 3026 3028 3029 3030 3031 3032 3033 3033 3032 3032 3032 3033 3034 3034 3035 3035 3035 3035 3035 3035 3035 3035 3035 3034 3034 3034 3035 3036 3036 3037 3039 3040 3041 3042 3042 3043 3044 3045 3046 3046 3047 3047 3047 3048 3047 3047 3046 3046 3046 3045 3044 3043 3042 3041 3040 3039 3038 3037 3036 3034 3033 3031 3030 3028 3026
3005 3007 3008 3009 3010 3011 3011 3012 3013 3014 3015 3015 3016 3017 3018 3019 3019 3020 3021 3022 3023 3025 3026 3027 3028 3029 3030 3030 3030 3030 3030 3031 3031 3031 3032 3032 3032 3032 3031 3031 3031 3031 3031 3031 3031 3031 3031 3032 3033 3034 3035 3037 3038 3038 3039 3040 3040 3041 3042 3043 3043 3044 3044 3044 3044 3044 3043 3043 3043 3042 3041 3040 3039 3039 3038 3037 3036 3035 3034 3032 3031 3029 3028 3026 3025
3004 3005 3006 3007 3007 3008 3009 3010 3011 3012 3012 3013 3014 3014 3015 3016 3017 3017 3018 3019 3020 3021 3022 3023 3024 3025 3026 3027 3027 3027 3027 3028 3028 3028 3028 3028 3028 3028 3028 3028 3028 3028 3027 3027 3027 3027 3028 3028 3029 3031 3032 3033 3034 3035 3036 3037 3037 3038 3039 3039 3040 3040 3041 3041 3041 3040 3040 3040 3039 3039 3038 3037 3036 3036 3035 3034 3033 3032 3031 3030 3028 3027 3026 3024 3023
3002 3002 3003 3005 3006 3007 3008 3009 3009 3010 3010 3011 3011 3011 3012 3013 3014 3015 3016 3017 3017 3018 3019 3019 3020 3021 3022 3023 3024 3024 3024 3024 3025 3025 3025 3025 3025 3025 3025 3025 3024 3024 3024 3024 3023 3024 3024 3025 3026 3027 3028 3030 3031 3031 3032 3033 3034 3035 3035 3036 3036 3037 3037 3037 3037 3037 3036 3036 3035 3035 3034 3034 3033 3032 3032 3031 3030 3029 3028 3027 3026 3025 3024 3022 3021
2999 3000 3002 3003 3004 3005 3006 3007 3007 3008 3008 3008 3008 3008 3009 3010 3011 3012 3013 3014 3014 3015 3016 3016 3017 3019 3020 3020 3021 3021 3021 3021 3021 3021 3022 3022 3022 3021 3021 3021 3021 3021 3020 3020 3020 3021 3021 3022 3022 3023 3025 3026 3027 3028 3029 3030 3031 3032 3032 3033 3033 3033 3033 3033 3033 3033 3033 3032 3032 3031 3031 3030 3029 3029 3028 3028 3027 3026 3025 3025 3024 3023 3022 3020 3019
2998 2999 3000 3001 3002 3003 3004 3004 3005 3005 3005 3006 3006 3006 3006 3007 3008 3009 3010 3011 3012 3013 3013 3014 3015 3016 3017 3017 3018 3018 3018 3018 3018 3017 3018 3018 3018 3018 3018 3018 3018 3018 3017 3017 3017 3018 3018 3018 3019 3020 3021 3022 3023 3025 3026 3027 3028 3028 3029 3029 3030 3030 3030 3030 3030 3030 3029 3029 3028 3028 3027 3026 3026 3025 3025 3024 3024 3023 3023 3023 3022 3021 3019 3018 3017
2995 2996 2997 2998 2999 3000 3001 3001 3002 3002 3003 3003 3004 3004 3005 3005 3006 3006 3007 3008 3009 3010 3011 3011 3012 3013 3013 3014 3015 3015 3015 3015 3014 3014 3013 3014 3015 3015 3015 3015 3015 3015 3015 3015 3015 3014 3015 3015 3016 3016 3017 3018 3020 3021 3022 3023 3024 3025 3025 3026 3026 3026 3026 3026 3027 3026 3026 3025 3025 3024 3024 3023 3023 3022 3022 3021 3021 3021 3020 3020 3019 3018 3017 3016 3015
2993 2994 2995 2996 2997 2997 2998 2998 2999 2999 3000 3001 3001 3002 3003 3003 3004 3005 3005 3006 3007 3007 3008 3008 3008 3009 3009 3011 3012 3012 3012 3012 3011 3011 3010 3010 3011 3011 3012 3012 3011 3011 3011 3012 3012 3011 3011 3012 3012 3013 3014 3015 3016 3017 3018 3020 3021 3021 3022 3023 3023 3023 3023 3023 3023 3022 3022 3022 3021 3021 3020 3020 3020 3019 3019 3018 3018 3018 3017 3017 3016 3015 3014 3013 3012
2991 2992 2993 2993 2994 2994 2995 2996 2996 2996 2997 2998 2998 2999 3000 3000 3001 3002 3003 3004 3004 3005 3005 3005 3005 3005 3006 3006 3008 3009 3009 3009 3009 3008 3008 3007 3007 3007 3007 3008 3007 3007 3007 3007 3008 3008 3008 3009 3009 3010 3010 3011 3013 3014 3015 3016 3017 3018 3019 3019 3019 3019 3019 3019 3019 3019 3018 3018 3018 3018 3017 3017 3017 3016 3016 3016 3015 3015 3014 3013 3013 3012 3011 3010 3009